Regional Weather Roundup
Issued by NWS

Home | Current Version | Previous Version | Text Only | Print | Product List | Glossary On
Versions: 1 2 3 4 5 6 7 8 9 10 11 12 13 14 15 16 17 18 19 20 21 22 23 24 25 26 27 28 29 30 31 32 33 34 35 36 37 38 39 40 41 42 43 44 45 46 47 48 49 50
000
ASUS43 KOAX 172210
RWRNE

WEATHER ROUNDUP FOR NEBRASKA
NATIONAL WEATHER SERVICE OMAHA NE
500 PM CDT FRI APR 17 2015

NOTES: SATELLITE DATA IS BEING USED TO AUGMENT CLOUD COVER ABOVE
       12000 FEET.
       "FAIR" INDICATES FEW OR NO CLOUDS BELOW 12,000 FEET WITH NO
       SIGNIFICANT WEATHER AND/OR OBSTRUCTIONS TO VISIBILITY.

  * THESE STATIONS DO NOT REPORT WEATHER SUCH AS RAIN...SNOW OR FOG.

NEZ001>004-019>022-054>056-172300-
NEBRASKA PANHANDLE

CITY           SKY/WX    TMP DP  RH WIND       PRES   REMARKS
SCOTTSBLUFF    LGT RAIN  47  47 100 NE26G33   30.02F
ALLIANCE       LGT RAIN  47  46  97 NE14      30.04F
CHADRON        LGT RAIN  48  44  86 NE12      30.10F FOG
KIMBALL        LGT RAIN  48  47  97 S9        29.99R
SIDNEY         LGT RAIN  53  50  89 SE13      29.99F
$$

NEZ057>060-069>072-079>082-172300-
SOUTHWEST NEBRASKA

CITY           SKY/WX    TMP DP  RH WIND       PRES   REMARKS
NORTH PLATTE   CLOUDY    61  53  75 SE16      30.00S
IMPERIAL         N/A     62  51  67 SE17      29.96F
LEXINGTON      CLOUDY    63  58  82 E12       29.99F
MCCOOK         PTSUNNY   68  52  56 SE16G22   29.95F
OGALLALA       LGT RAIN  56  54  92 E10       30.00S
$$

NEZ005>010-023>029-035>040-094-172300-
NORTH CENTRAL NEBRASKA

CITY           SKY/WX    TMP DP  RH WIND       PRES   REMARKS
VALENTINE      LGT RAIN  55  52  89 NE9       30.09F
AINSWORTH      RAIN      55  54  96 NE8       30.09S
BROKEN BOW     CLOUDY    60  55  83 E10       30.02F
O`NEILL        CLOUDY    64  51  60 NE6       30.07F
ORD            CLOUDY    61  56  83 N3        30.02F
THEDFORD       DRIZZLE   55  54  97 E10       30.05F
$$

NEZ041-046>049-061>064-073>077-083>087-172300-
SOUTH CENTRAL NEBRASKA

CITY           SKY/WX    TMP DP  RH WIND       PRES   REMARKS
GRAND ISLAND   CLOUDY    68  55  63 E9        30.00F
AURORA         PTSUNNY   71  54  55 E15G22    29.99F
HASTINGS       CLOUDY    67  55  65 E13G23    29.98F
HEBRON         CLOUDY    70  57  64 E10       29.97F
HOLDREGE       MOSUNNY   67  55  63 E13G20    29.98F
KEARNEY *      CLOUDY    63  55  77 E13       30.00F
YORK           MOSUNNY   72  54  53 SE13      29.99F
$$

NEZ011>018-030>034-042>045-172300-
NORTHEAST NEBRASKA

CITY           SKY/WX    TMP DP  RH WIND       PRES   REMARKS
ALBION         CLOUDY    69  51  51 SE6       30.01F
BLAIR          CLOUDY    74  48  39 E7        29.99F
COLUMBUS *     CLOUDY    72  50  46 E9        30.02F
FREMONT        CLOUDY    75  49  39 E6        29.99F
WAYNE          CLOUDY    74  44  33 E7        30.02F
$$

NEZ050>053-065>068-078-088>093-172300-
SOUTHEAST NEBRASKA

CITY           SKY/WX    TMP DP  RH WIND       PRES   REMARKS
LINCOLN        CLOUDY    73  54  51 E7        29.99F
OMAHA EPPLEY   CLOUDY    77  52  41 SE7       29.98F
BEATRICE       CLOUDY    70  56  61 E7        29.97F
FALLS CITY     CLOUDY    74  54  49 SE12      29.95F
NEBRASKA CITY  CLOUDY    74  46  37 SE9       29.98S
PLATTSMOUTH    CLOUDY    76  48  37 E7        29.98F
$$

NEZ044-045-051>053-067-172300-
OMAHA AREA

CITY           SKY/WX    TMP DP  RH WIND       PRES   REMARKS
OMAHA EPPLEY   CLOUDY    77  52  41 SE7       29.98F
BLAIR          CLOUDY    74  48  39 E7        29.99F
FREMONT        CLOUDY    75  49  39 E6        29.99F
MILLARD        CLOUDY    75  54  47 SE8       29.98F
OFFUTT AFB     CLOUDY    75  54  46 E8        29.97F
PLATTSMOUTH    CLOUDY    76  48  37 E7        29.98F
WAHOO          FAIR      74  49  41 E10       29.99S
$$


USA.gov is the U.S. government's official web portal to all federal, state and local government web resources and services.